| time (UTC) | temp C | wind direction | speed KPH | gust KPH | rain 1hr cm | rain 24hr cm | rain mn cm | humidity % | barometer mb |
| 20260505093041 | 13 | 215 | 0.0 | 0.0 | 0.00 | 0.00 | 0.00 | 69 | 1008.4 |
| 20260505091539 | 14 | 215 | 0.0 | 0.0 | 0.00 | 0.00 | 0.00 | 69 | 1008.4 |
| 20260505090048 | 13 | 214 | 0.0 | 0.0 | 0.00 | 0.00 | 0.00 | 71 | 1008.4 |
| 20260505084531 | 13 | 214 | 0.0 | 0.0 | 0.00 | 0.00 | 0.00 | 71 | 1008.2 |
| 20260505083032 | 13 | 214 | 0.0 | 0.0 | 0.00 | 0.00 | 0.00 | 71 | 1008.2 |
| 20260505081530 | 13 | 214 | 0.0 | 0.0 | 0.00 | 0.00 | 0.00 | 71 | 1008.1 |
| 20260505080024 | 13 | 214 | 0.0 | 0.0 | 0.00 | 0.00 | 0.00 | 71 | 1008.2 |
| 20260505074522 | 14 | 213 | 0.0 | 0.0 | 0.00 | 0.00 | 0.00 | 71 | 1008.0 |
| 20260505073020 | 14 | 213 | 0.0 | 0.0 | 0.00 | 0.00 | 0.00 | 71 | 1007.8 |
| 20260505071518 | 14 | 213 | 0.0 | 0.0 | 0.00 | 0.00 | 0.00 | 70 | 1007.8 |
| 20260505070015 | 15 | 213 | 0.0 | 0.0 | 0.00 | 0.00 | 0.00 | 69 | 1007.6 |
| 20260505064512 | 15 | 238 | 0.0 | 8.0 | 0.00 | 0.00 | 0.00 | 68 | 1007.4 |
| 20260505063014 | 16 | 249 | 0.0 | 9.7 | 0.00 | 0.00 | 0.00 | 67 | 1007.5 |
| 20260505061512 | 16 | 234 | 0.0 | 0.0 | 0.00 | 0.00 | 0.00 | 67 | 1007.3 |
| 20260505060024 | 16 | 240 | 0.0 | 0.0 | 0.00 | 0.00 | 0.00 | 66 | 1007.2 |
| 20260505054518 | 16 | 250 | 0.0 | 0.0 | 0.00 | 0.00 | 0.00 | 66 | 1007.2 |
| 20260505053010 | 17 | 250 | 0.0 | 0.0 | 0.00 | 0.00 | 0.00 | 64 | 1007.1 |
| 20260505051510 | 17 | 250 | 0.0 | 0.0 | 0.00 | 0.00 | 0.00 | 63 | 1007.2 |
| 20260505041508 | 18 | 204 | 0.0 | 0.0 | 0.00 | 0.00 | 0.00 | 57 | 1006.7 |
| 20260505040008 | 20 | 205 | 0.0 | 0.0 | 0.00 | 0.00 | 0.00 | 56 | 1006.6 |
| 20260505034507 | 19 | 315 | 4.8 | 16.1 | 0.00 | 0.00 | 0.00 | 56 | 1006.3 |
| 20260505033015 | 20 | 240 | 0.0 | 12.9 | 0.00 | 0.00 | 0.00 | 55 | 1006.1 |
| 20260505031506 | 20 | 269 | 3.2 | 11.3 | 0.00 | 0.00 | 0.00 | 55 | 1005.9 |
| 20260505030005 | 20 | 263 | 8.0 | 32.2 | 0.00 | 0.00 | 0.00 | 54 | 1005.7 |
| 20260505024505 | 20 | 247 | 11.3 | 24.1 | 0.00 | 0.00 | 0.00 | 54 | 1005.6 |
| 20260505023004 | 21 | 252 | 12.9 | 33.8 | 0.00 | 0.00 | 0.00 | 52 | 1005.6 |
| 20260505021503 | 22 | 279 | 17.7 | 38.6 | 0.00 | 0.00 | 0.00 | 50 | 1005.4 |
| 20260505020003 | 22 | 271 | 11.3 | 27.4 | 0.00 | 0.00 | 0.00 | 49 | 1005.1 |
| 20260505014507 | 22 | 300 | 16.1 | 29.0 | 0.00 | 0.00 | 0.00 | 47 | 1005.2 |
| 20260505013002 | 23 | 254 | 12.9 | 27.4 | 0.00 | 0.00 | 0.00 | 45 | 1005.2 |
| 20260505011503 | 23 | 248 | 17.7 | 30.6 | 0.00 | 0.00 | 0.00 | 42 | 1005.4 |
| 20260505010103 | 23 | 277 | 9.7 | 30.6 | 0.00 | 0.00 | 0.00 | 43 | 1005.5 |
| 20260505004602 | 24 | 259 | 16.1 | 29.0 | 0.00 | 0.00 | 0.00 | 41 | 1005.3 |
| 20260505003103 | 24 | 284 | 17.7 | 33.8 | 0.00 | 0.00 | 0.00 | 40 | 1005.1 |
| 20260505001559 | 25 | 252 | 9.7 | 30.6 | 0.00 | 0.00 | 0.00 | 41 | 1005.1 |
| 20260504234622 | 25 | 234 | 8.0 | 24.1 | 0.00 | 0.00 | 0.00 | 39 | 1005.0 |
| 20260504233057 | 25 | 265 | 17.7 | 32.2 | 0.00 | 0.00 | 0.00 | 37 | 1005.1 |
| 20260504231601 | 26 | 274 | 9.7 | 27.4 | 0.00 | 0.00 | 0.00 | 37 | 1005.1 |
| 20260504230053 | 26 | 254 | 14.5 | 22.5 | 0.00 | 0.00 | 0.00 | 36 | 1005.2 |
| 20260504224603 | 26 | 360 | 12.9 | 25.7 | 0.00 | 0.00 | 0.00 | 34 | 1005.4 |
| 20260504223050 | 26 | 274 | 11.3 | 20.9 | 0.00 | 0.00 | 0.00 | 36 | 1005.5 |
| 20260504221600 | 26 | 259 | 12.9 | 24.1 | 0.00 | 0.00 | 0.00 | 32 | 1005.5 |
| 20260504220052 | 26 | 289 | 12.9 | 22.5 | 0.00 | 0.00 | 0.00 | 34 | 1005.7 |
| 20260504214551 | 26 | 286 | 6.4 | 19.3 | 0.00 | 0.00 | 0.00 | 36 | 1005.7 |
| 20260504213052 | 26 | 286 | 9.7 | 19.3 | 0.00 | 0.00 | 0.00 | 33 | 1005.8 |
| 20260504211544 | 26 | 360 | 11.3 | 20.9 | 0.00 | 0.00 | 0.00 | 33 | 1006.0 |
| 20260504210053 | 26 | 257 | 3.2 | 20.9 | 0.00 | 0.00 | 0.00 | 37 | 1006.1 |
| 20260504204619 | 26 | 277 | 6.4 | 19.3 | 0.00 | 0.00 | 0.00 | 32 | 1006.2 |
| 20260504203040 | 26 | 267 | 8.0 | 17.7 | 0.00 | 0.00 | 0.00 | 30 | 1006.3 |
| 20260504201538 | 26 | 267 | 6.4 | 14.5 | 0.00 | 0.00 | 0.00 | 31 | 1006.4 |
| 20260504200039 | 26 | 276 | 6.4 | 14.5 | 0.00 | 0.00 | 0.00 | 33 | 1006.5 |
| 20260504194545 | 26 | 254 | 8.0 | 19.3 | 0.00 | 0.00 | 0.00 | 28 | 1006.6 |
| 20260504193034 | 26 | 209 | 0.0 | 9.7 | 0.00 | 0.00 | 0.00 | 27 | 1006.7 |
| 20260504191530 | 26 | 212 | 8.0 | 14.5 | 0.00 | 0.00 | 0.00 | 28 | 1006.8 |
| 20260504190026 | 25 | 93 | 0.0 | 0.0 | 0.00 | 0.00 | 0.00 | 37 | 1007.0 |
| 20260504184523 | 24 | 146 | 0.0 | 12.9 | 0.00 | 0.00 | 0.00 | 39 | 1007.0 |
| 20260504183020 | 23 | 67 | 1.6 | 14.5 | 0.00 | 0.00 | 0.00 | 45 | 1007.2 |
| 20260504181518 | 23 | 62 | 6.4 | 20.9 | 0.00 | 0.00 | 0.00 | 41 | 1007.2 |
| 20260504180015 | 22 | 112 | 0.0 | 0.0 | 0.00 | 0.00 | 0.00 | 51 | 1007.2 |
| 20260504174512 | 21 | 73 | 0.0 | 1.6 | 0.00 | 0.00 | 0.00 | 51 | 1007.3 |
| 20260504173009 | 21 | 91 | 0.0 | 0.0 | 0.00 | 0.00 | 0.00 | 55 | 1007.4 |
| 20260504171522 | 20 | 103 | 0.0 | 0.0 | 0.00 | 0.00 | 0.00 | 58 | 1007.5 |